SCP
0 0 0 0 0 0 0 0 0 0 0 0 0 0 0 0 0 0 0 0 0 0 0 -0 -0 -0 -0 0 0 0 0 -0 -0 -0 -0 0 -0 0 0 0 -0 -0 -0 0
0 0 0 0 0 0 0 0 0 0 0 0 0 0 0 0 0 0 0 0 0 -0 -0 0 0 0 -0 -0 -0 0 0 0 -0 -0 0 0 0 0 -0 -0 -0 0 -0 -0
0 0 0 0 0 0 0 0 0 0 0 0 0 0 0 0 0 0 0 0 0 0 0 -0 0 0 0 0 -0 -0 -0 0 0 0 -0 -0 -0 -0 0 0 0 0 -0 -0
0 0 0 0 0 0 0 0 0 0 0 0 0 0 0 0 0 0 0 0 0 0 0 0 0 -0 0 0 0 0 0 0 -0 -0 -0 0 -0 -0 0 0 0 -0 -0 -0
0 0 0 0 0 0 0 0 0 0 0 0 0 0 0 0 0 0 -0 0 -0 0 -0 -0 -0 -0 -0 0 -0 0 0 0 0 0 -0 -0 0 0 -0 -0 0 0 -0 -0
0 0 0 0 0 0 0 0 0 0 0 0 0 0 0 0 0 0 0 0 -0 -0 0 -0 -0 -0 -0 -0 0 0 0 0 0 -0 -0 0 0 -0 -0 0 0 -0 0 -0
0 0 0 0 0 0 0 0 0 0 0 0 0 0 0 0 0 -0 -0 -0 -0 0 -0 -0 -0 -0 -0 0 0 0 0 0 0 0 -0 0 0 0 0 0 0 0 0 0
0 0 0 0 0 0 0 0 0 0 0 0 0 0 0 0 0 -0 -0 -0 0 0 -0 -0 -0 0 0 0 0 0 0 0 0 0 0 0 -0 -0 0 0 0 0 -0 -0
0 0 0 0 0 0 0 0 0 0 0 0 0 0 0 0 0 0 0 0 -0 0 0 0 -0 -0 -0 -0 -0 0 0 0 0 0 0 0 0 0 0 0 -0 0 0 0
0 0 0 0 0 0 0 0 0 0 0 0 0 0 0 0 0 0 0 0 0 0 0 0 -0 -0 -0 -0 -0 0 0 0 0 0 0 0 0 0 0 0 0 0 0 0
0 0 0 0 0 0 0 0 0 0 0 0 0 0 0 0 0 0 -0 0 0 0 0 0 0 -0 -0 -0 0 0 0 0 0 0 0 0 -0 0 0 0 -0 0 -0 0
0 0 0 0 0 0 0 0 0 0 0 0 0 0 0 -0 -0 0 0 0 0 0 0 0 0 -0 -0 -0 -0 -0 0 0 0 0 0 -0 -0 0 -0 -0 -0 -0 0 0
0 0 0 0 0 0 0 0 0 0 0 0 0 0 0 0 0 0 0 0 0 0 0 0 -0 -0 -0 -0 -0 0 0 0 0 0 0 0 0 0 -0 0 -0 -0 0 0
0 0 0 0 0 0 0 0 0 0 0 0 0 0 0 0 0 0 -0 -0 0 0 0 0 0 0 -0 -0 -0 0 0 0 0 0 0 -0 0 0 -0 -0 -0 0 0 0
0 0 0 0 0 0 0 0 0 0 0 0 0 0 0 0 0 -0 -0 -0 -0 0 0 0 0 0 -0 0 -0 0 0 0 0 0 -0 -0 -0 0 0 -0 0 0 0 0
0 0 0 0 0 0 0 0 0 0 0 0 0 0 0 0 0 0 0 0 0 0 0 0 0 0 0 -0 -0 0 0 0 0 0 -0 0 0 0 0 -0 -0 0 0 0
0 0 0 0 0 0 0 0 0 0 0 0 0 0 0 0 0 0 0 0 0 0 0 0 0 0 0 -0 -0 -0 -0 0 0 0 0 -0 -0 -0 -0 -0 0 0 0 0
0 0 0 0 0 0 0 0 0 0 0 0 0 0 0 0 0 0 0 0 0 0 0 0 0 0 0 -0 -0 -0 0 0 -0 0 -0 0 -0 0 0 0 0 0 0 0
0 0 0 0 0 0 0 0 0 0 0 0 0 0 0 0 0 0 0 0 0 0 0 0 0 0 -0 -0 -0 -0 0 -0 -0 -0 0 -0 0 0 0 0 0 0 0 0
0 0 0 0 0 0 0 0 0 0 0 0 0 0 -0 0 -0 -0 0 0 0 0 -0 0 0 0 0 0 0 0 0 -0 -0 -0 0 -0 0 0 0 0 0 0 0 0
0 0 0 0 0 0 0 0 0 0 0 0 0 0 -0 -0 -0 -0 0 0 0 0 0 0 0 -0 0 0 0 0 0 -0 -0 -0 -0 -0 0 0 0 0 0 0 0 0
0 0 0 0 0 0 0 0 0 0 0 0 0 0 0 0 0 0 0 0 -0 -0 0 0 -0 -0 0 0 0 0 -0 -0 -0 -0 -0 -0 0 0 0 0 0 0 0 0
0 0 0 0 0 0 0 0 0 0 0 0 0 0 0 0 0 0 0 -0 0 0 -0 -0 -0 0 0 0 0 -0 -0 -0 -0 -0 -0 -0 -0 -0 0 0 0 0 0 0
0 0 0 0 0 0 0 0 -0 -0 -0 0 0 0 0 0 0 0 0 0 0 0 -0 0 0 0 0 -0 0 0 -0 0 0 -0 -0 -0 -0 -0 0 0 0 0 0 0
0 0 0 0 0 0 0 0 -0 -0 0 0 0 -0 -0 -0 -0 0 0 0 0 0 0 0 -0 -0 -0 0 0 0 -0 -0 0 0 -0 0 -0 -0 -0 0 -0 0 0 0
0 0 0 0 0 0 0 0 -0 -0 0 0 0 0 -0 -0 0 0 0 0 0 0 0 0 0 0 0 0 0 0 -0 0 0 0 0 0 0 0 0 -0 -0 0 0 0
0 0 0 0 0 0 -0 -0 -0 0 -0 0 0 0 0 0 0 0 0 0 0 0 0 -0 -0 0 -0 0 0 0 0 0 0 0 0 0 0 0 0 0 0 0 0 0
Wind_Speed_500mb
55 56 59 60 65 68 48 15 9 2 9 14 6 13 12 15 19 8 14 19 23 23 23 30 31 36 26 28 27 33 39 14 29 42 45 23 33 29 22 9 19 36 30 33
54 57 58 56 58 58 51 24 15 5 8 6 14 22 22 11 18 19 8 14 22 27 29 21 25 32 31 31 31 10 17 12 20 28 15 21 19 38 20 15 22 41 23 20
56 59 62 59 50 43 32 16 7 6 3 2 12 21 20 15 4 18 16 18 30 27 29 28 22 37 24 29 31 30 25 29 31 31 44 14 18 32 28 29 24 36 32 39
57 58 60 54 50 32 14 7 9 11 9 15 21 23 27 21 21 7 18 15 15 22 24 38 39 37 41 44 43 30 9 16 37 42 43 38 45 39 30 36 40 42 44 39
59 56 52 49 51 25 10 17 13 23 34 20 16 6 20 20 17 25 30 33 30 22 34 31 49 44 39 25 26 16 8 15 30 41 42 42 44 42 36 38 42 55 48 46
58 53 42 39 38 23 11 14 11 14 21 16 15 10 14 19 24 23 21 36 33 37 38 45 54 56 60 46 23 26 11 13 22 36 39 33 35 37 37 37 41 47 48 43
55 48 38 29 22 13 11 10 15 8 14 19 18 29 27 27 26 33 45 44 40 38 50 60 62 61 56 35 22 23 7 18 16 19 25 22 21 20 28 31 35 28 41 35
47 42 35 27 18 13 13 15 10 7 12 28 33 16 25 36 32 34 39 34 27 37 42 22 23 2 10 14 25 23 16 3 8 9 15 29 44 25 16 18 40 38 42 51
42 37 34 30 21 20 15 17 21 13 12 15 33 43 30 17 21 27 16 24 28 24 11 13 12 7 12 10 15 11 14 14 7 9 10 9 4 16 15 15 34 17 21 23
41 37 33 30 25 19 16 18 19 21 26 35 19 25 26 28 21 15 30 18 14 6 7 6 6 10 17 9 10 12 15 6 15 21 17 15 17 19 22 11 11 35 35 31
41 38 35 31 27 23 18 22 24 31 37 59 56 44 38 31 27 17 21 20 2 16 7 6 7 7 8 8 22 19 7 6 6 7 10 3 31 14 7 22 52 44 44 45
43 40 35 32 28 24 20 27 16 30 36 49 63 64 61 62 54 35 14 13 19 9 6 8 10 10 9 20 10 17 8 8 5 6 10 41 44 34 47 46 48 57 50 51
45 42 37 29 27 26 23 26 27 31 33 55 33 28 19 22 35 47 34 22 18 13 13 3 4 10 12 9 16 26 19 10 7 5 10 27 44 34 46 27 45 61 71 61
45 43 36 30 30 29 27 27 21 25 17 13 12 14 28 26 32 36 46 44 16 13 12 8 7 7 14 11 21 26 26 21 18 23 28 34 18 29 43 41 54 65 34 31
45 44 39 36 35 39 36 36 36 32 24 11 32 60 17 13 23 38 44 50 45 33 7 7 6 11 11 9 12 12 22 19 8 7 21 25 27 46 39 51 62 55 30 28
44 42 41 44 42 31 16 12 11 20 39 10 8 20 26 19 18 21 31 35 32 21 9 10 11 18 10 7 7 18 32 31 23 22 25 27 38 40 40 46 63 37 29 20
43 42 45 42 30 21 18 10 9 10 13 9 11 11 11 19 17 11 18 23 17 15 9 14 15 27 17 8 20 22 31 31 27 26 31 28 34 43 42 50 45 33 27 24
42 44 42 35 17 16 29 25 34 27 16 10 6 10 19 25 17 13 22 14 18 18 11 10 13 16 17 9 14 16 28 33 35 28 37 37 41 42 41 42 38 34 38 35
44 39 23 9 5 6 10 13 14 15 25 8 8 7 6 10 23 10 16 17 8 12 8 10 10 9 10 9 19 19 26 29 33 34 35 39 45 43 36 36 41 45 38 36
34 18 8 8 4 10 14 13 11 18 15 16 10 31 18 25 15 9 8 14 7 7 14 11 7 13 23 14 3 12 20 24 28 33 38 41 43 40 34 32 34 37 38 30
24 13 9 16 18 10 14 11 13 14 7 15 16 31 23 19 13 8 10 4 6 6 5 5 6 2 5 8 7 11 16 22 26 24 25 25 36 42 34 29 33 41 38 30
24 25 27 18 6 12 7 7 8 8 7 14 8 5 6 6 10 8 6 4 7 7 6 5 3 10 18 9 9 14 14 21 22 24 29 30 39 40 34 24 32 36 32 28
9 6 7 5 5 3 7 8 7 7 15 15 9 2 3 7 10 10 6 8 7 10 5 4 6 10 15 9 8 12 12 18 20 26 29 32 33 34 36 31 32 30 30 30
7 8 6 7 5 7 6 12 16 23 20 23 10 10 7 2 3 4 8 10 3 4 4 1 10 16 9 9 7 11 13 16 17 19 26 29 33 39 40 38 36 39 34 36
8 8 7 7 15 30 14 19 24 28 36 32 21 15 9 3 6 7 9 8 6 6 2 6 18 11 7 6 7 3 14 11 16 17 21 25 29 34 36 36 34 31 30 35
5 7 13 24 27 32 35 28 29 14 30 39 18 11 6 8 5 9 9 4 4 1 6 10 10 3 5 9 3 3 8 12 15 17 18 20 24 28 31 30 33 33 35 37
4 10 20 24 25 25 32 31 34 26 17 9 12 6 6 2 8 5 5 7 11 21 25 26 16 8 7 8 7 3 6 7 12 13 15 18 20 22 28 32 29 35 35 37
Wind_Direction_500mb
348 347 347 347 347 347 2 345 280 340 345 260 218 266 8 315 286 269 268 286 304 299 317 308 300 297 309 310 324 311 305 289 286 279 283 219 262 266 313 233 286 264 275 284
346 346 346 347 348 350 344 322 293 305 336 310 327 316 309 271 289 292 308 279 294 301 300 298 281 295 308 309 313 324 357 284 305 292 247 32 354 311 280 282 269 264 270 276
346 346 342 342 344 347 346 310 300 180 354 206 304 325 310 314 287 290 293 308 295 289 291 296 277 290 302 297 288 286 294 261 257 269 288 244 237 233 254 275 264 276 262 258
343 345 345 347 349 356 5 312 38 357 306 335 327 301 299 294 297 264 277 286 298 303 302 303 295 301 314 309 299 282 210 266 273 272 277 278 278 283 271 266 269 267 283 284
340 340 344 347 349 11 344 335 347 333 293 287 284 295 301 312 327 326 308 293 308 307 282 282 291 295 295 293 299 299 242 275 289 288 280 267 264 262 257 259 268 273 274 278
333 336 341 347 359 34 21 345 322 319 297 295 289 331 314 310 325 297 291 316 306 289 293 301 294 285 276 269 244 270 261 280 288 280 276 286 270 271 266 261 262 260 266 272
333 334 337 342 351 9 347 327 332 298 297 325 314 317 297 283 294 283 289 290 285 296 304 298 286 268 259 269 252 220 229 238 242 266 299 265 281 355 349 325 310 289 286 298
335 335 338 335 317 297 315 302 277 278 285 317 294 283 320 295 293 285 286 289 294 308 308 299 307 351 214 215 227 193 197 228 262 256 241 277 289 321 331 304 280 291 295 295
334 334 337 332 315 295 290 292 257 257 299 236 332 311 298 315 299 296 276 318 305 298 284 294 282 307 322 332 325 134 167 207 251 281 262 274 6 72 11 299 273 33 351 328
333 334 334 329 320 298 277 277 282 252 266 282 298 291 318 302 291 279 298 331 314 272 257 271 289 312 339 320 320 297 306 228 232 250 252 265 49 355 327 237 339 340 325 297
331 332 331 326 318 305 286 275 268 267 272 283 281 279 278 278 255 257 311 315 353 290 264 321 337 313 310 303 286 288 269 290 305 292 267 345 341 348 233 315 309 308 302 290
328 327 328 326 321 309 287 287 279 275 265 266 287 283 271 258 251 251 231 283 313 289 313 349 330 312 295 313 296 328 302 205 260 202 287 300 309 297 298 289 277 289 285 282
325 325 325 328 326 318 298 283 288 281 284 296 274 266 248 250 242 234 239 258 228 230 234 299 285 277 306 293 287 312 310 328 241 295 269 315 313 309 304 307 307 302 287 274
324 322 322 325 314 303 291 280 264 263 283 283 307 304 272 262 246 221 221 234 234 263 238 219 256 260 290 278 296 303 289 296 288 272 289 319 282 294 320 323 320 320 310 286
322 320 319 312 302 296 292 277 261 232 240 290 299 306 302 237 226 228 227 238 249 261 248 238 233 252 298 283 299 267 268 351 315 296 334 294 325 343 343 335 322 329 327 315
322 319 315 311 306 300 285 301 242 225 220 264 284 301 285 225 221 227 228 230 233 226 215 238 237 250 262 266 266 275 342 337 349 328 334 358 339 335 340 330 332 341 339 329
322 317 314 310 300 265 213 265 199 209 223 245 276 271 254 219 216 223 213 212 214 212 228 227 243 255 208 264 272 311 343 356 353 29 7 355 351 340 340 345 346 357 6 21
322 318 313 306 297 253 243 259 247 250 207 243 264 265 259 202 209 200 194 198 205 219 237 239 237 242 212 258 302 334 358 358 0 42 21 354 345 345 350 353 1 15 23 38
325 321 317 308 273 242 250 256 224 235 223 258 239 268 298 238 255 203 183 192 206 224 220 236 244 239 230 276 308 356 12 10 356 15 7 6 352 350 4 3 11 21 29 46
336 354 290 210 150 257 276 262 224 209 213 231 248 248 261 313 305 269 194 193 218 232 216 216 237 256 260 240 298 7 11 7 8 14 10 0 357 3 12 16 15 23 31 51
352 323 278 286 286 280 238 231 204 179 230 217 236 238 245 266 266 299 289 286 241 255 153 242 228 297 126 107 102 54 27 12 20 28 20 14 1 8 23 28 23 26 36 49
307 298 295 313 324 234 260 244 244 208 265 167 247 228 197 256 276 268 260 239 271 272 354 249 304 323 111 111 87 65 43 22 17 19 19 18 12 14 26 41 47 32 38 46
313 298 278 272 260 293 253 235 222 247 2 349 355 0 286 249 240 266 266 239 251 329 275 274 40 194 107 117 95 89 62 36 28 16 19 21 25 22 26 35 47 58 47 47
292 298 252 264 209 230 313 339 324 326 320 313 299 276 269 288 266 251 249 231 193 246 234 337 75 39 142 128 119 95 74 53 41 37 28 20 26 33 32 28 31 39 34 44
280 290 257 245 337 312 347 340 356 344 330 316 310 261 245 179 258 265 252 205 209 191 303 353 38 342 133 146 118 87 95 64 58 51 43 43 45 45 41 38 41 41 47 51
291 271 287 309 321 315 317 344 324 326 329 317 281 287 220 217 231 240 231 152 130 347 325 354 4 45 155 144 111 100 82 76 66 66 68 63 56 57 59 54 53 51 53 55
277 259 287 309 310 309 309 310 313 331 335 334 284 268 306 249 267 331 23 39 18 358 349 354 3 22 155 175 189 182 131 94 81 73 76 79 74 70 67 59 53 56 58 61
Wind_Speed_850mb
55 56 59 60 65 68 48 15 9 2 9 14 6 13 12 15 19 8 14 19 23 23 23 30 31 36 26 28 27 33 39 14 29 42 45 23 33 29 22 9 19 36 30 33
54 57 58 56 58 58 51 24 15 5 8 6 14 22 22 11 18 19 8 14 22 27 29 21 25 32 31 31 31 10 17 12 20 28 15 21 19 38 20 15 22 41 23 20
56 59 62 59 50 43 32 16 7 6 3 2 12 21 20 15 4 18 16 18 30 27 29 28 22 37 24 29 31 30 25 29 31 31 44 14 18 32 28 29 24 36 32 39
57 58 60 54 50 32 14 7 9 11 9 15 21 23 27 21 21 7 18 15 15 22 24 38 39 37 41 44 43 30 9 16 37 42 43 38 45 39 30 36 40 42 44 39
59 56 52 49 51 25 10 17 13 23 34 20 16 6 20 20 17 25 30 33 30 22 34 31 49 44 39 25 26 16 8 15 30 41 42 42 44 42 36 38 42 55 48 46
58 53 42 39 38 23 11 14 11 14 21 16 15 10 14 19 24 23 21 36 33 37 38 45 54 56 60 46 23 26 11 13 22 36 39 33 35 37 37 37 41 47 48 43
55 48 38 29 22 13 11 10 15 8 14 19 18 29 27 27 26 33 45 44 40 38 50 60 62 61 56 35 22 23 7 18 16 19 25 22 21 20 28 31 35 28 41 35
47 42 35 27 18 13 13 15 10 7 12 28 33 16 25 36 32 34 39 34 27 37 42 22 23 2 10 14 25 23 16 3 8 9 15 29 44 25 16 18 40 38 42 51
42 37 34 30 21 20 15 17 21 13 12 15 33 43 30 17 21 27 16 24 28 24 11 13 12 7 12 10 15 11 14 14 7 9 10 9 4 16 15 15 34 17 21 23
41 37 33 30 25 19 16 18 19 21 26 35 19 25 26 28 21 15 30 18 14 6 7 6 6 10 17 9 10 12 15 6 15 21 17 15 17 19 22 11 11 35 35 31
41 38 35 31 27 23 18 22 24 31 37 59 56 44 38 31 27 17 21 20 2 16 7 6 7 7 8 8 22 19 7 6 6 7 10 3 31 14 7 22 52 44 44 45
43 40 35 32 28 24 20 27 16 30 36 49 63 64 61 62 54 35 14 13 19 9 6 8 10 10 9 20 10 17 8 8 5 6 10 41 44 34 47 46 48 57 50 51
45 42 37 29 27 26 23 26 27 31 33 55 33 28 19 22 35 47 34 22 18 13 13 3 4 10 12 9 16 26 19 10 7 5 10 27 44 34 46 27 45 61 71 61
45 43 36 30 30 29 27 27 21 25 17 13 12 14 28 26 32 36 46 44 16 13 12 8 7 7 14 11 21 26 26 21 18 23 28 34 18 29 43 41 54 65 34 31
45 44 39 36 35 39 36 36 36 32 24 11 32 60 17 13 23 38 44 50 45 33 7 7 6 11 11 9 12 12 22 19 8 7 21 25 27 46 39 51 62 55 30 28
44 42 41 44 42 31 16 12 11 20 39 10 8 20 26 19 18 21 31 35 32 21 9 10 11 18 10 7 7 18 32 31 23 22 25 27 38 40 40 46 63 37 29 20
43 42 45 42 30 21 18 10 9 10 13 9 11 11 11 19 17 11 18 23 17 15 9 14 15 27 17 8 20 22 31 31 27 26 31 28 34 43 42 50 45 33 27 24
42 44 42 35 17 16 29 25 34 27 16 10 6 10 19 25 17 13 22 14 18 18 11 10 13 16 17 9 14 16 28 33 35 28 37 37 41 42 41 42 38 34 38 35
44 39 23 9 5 6 10 13 14 15 25 8 8 7 6 10 23 10 16 17 8 12 8 10 10 9 10 9 19 19 26 29 33 34 35 39 45 43 36 36 41 45 38 36
34 18 8 8 4 10 14 13 11 18 15 16 10 31 18 25 15 9 8 14 7 7 14 11 7 13 23 14 3 12 20 24 28 33 38 41 43 40 34 32 34 37 38 30
24 13 9 16 18 10 14 11 13 14 7 15 16 31 23 19 13 8 10 4 6 6 5 5 6 2 5 8 7 11 16 22 26 24 25 25 36 42 34 29 33 41 38 30
24 25 27 18 6 12 7 7 8 8 7 14 8 5 6 6 10 8 6 4 7 7 6 5 3 10 18 9 9 14 14 21 22 24 29 30 39 40 34 24 32 36 32 28
9 6 7 5 5 3 7 8 7 7 15 15 9 2 3 7 10 10 6 8 7 10 5 4 6 10 15 9 8 12 12 18 20 26 29 32 33 34 36 31 32 30 30 30
7 8 6 7 5 7 6 12 16 23 20 23 10 10 7 2 3 4 8 10 3 4 4 1 10 16 9 9 7 11 13 16 17 19 26 29 33 39 40 38 36 39 34 36
8 8 7 7 15 30 14 19 24 28 36 32 21 15 9 3 6 7 9 8 6 6 2 6 18 11 7 6 7 3 14 11 16 17 21 25 29 34 36 36 34 31 30 35
5 7 13 24 27 32 35 28 29 14 30 39 18 11 6 8 5 9 9 4 4 1 6 10 10 3 5 9 3 3 8 12 15 17 18 20 24 28 31 30 33 33 35 37
4 10 20 24 25 25 32 31 34 26 17 9 12 6 6 2 8 5 5 7 11 21 25 26 16 8 7 8 7 3 6 7 12 13 15 18 20 22 28 32 29 35 35 37
Wind_Direction_850mb
348 347 347 347 347 347 2 345 280 340 345 260 218 266 8 315 286 269 268 286 304 299 317 308 300 297 309 310 324 311 305 289 286 279 283 219 262 266 313 233 286 264 275 284
346 346 346 347 348 350 344 322 293 305 336 310 327 316 309 271 289 292 308 279 294 301 300 298 281 295 308 309 313 324 357 284 305 292 247 32 354 311 280 282 269 264 270 276
346 346 342 342 344 347 346 310 300 180 354 206 304 325 310 314 287 290 293 308 295 289 291 296 277 290 302 297 288 286 294 261 257 269 288 244 237 233 254 275 264 276 262 258
343 345 345 347 349 356 5 312 38 357 306 335 327 301 299 294 297 264 277 286 298 303 302 303 295 301 314 309 299 282 210 266 273 272 277 278 278 283 271 266 269 267 283 284
340 340 344 347 349 11 344 335 347 333 293 287 284 295 301 312 327 326 308 293 308 307 282 282 291 295 295 293 299 299 242 275 289 288 280 267 264 262 257 259 268 273 274 278
333 336 341 347 359 34 21 345 322 319 297 295 289 331 314 310 325 297 291 316 306 289 293 301 294 285 276 269 244 270 261 280 288 280 276 286 270 271 266 261 262 260 266 272
333 334 337 342 351 9 347 327 332 298 297 325 314 317 297 283 294 283 289 290 285 296 304 298 286 268 259 269 252 220 229 238 242 266 299 265 281 355 349 325 310 289 286 298
335 335 338 335 317 297 315 302 277 278 285 317 294 283 320 295 293 285 286 289 294 308 308 299 307 351 214 215 227 193 197 228 262 256 241 277 289 321 331 304 280 291 295 295
334 334 337 332 315 295 290 292 257 257 299 236 332 311 298 315 299 296 276 318 305 298 284 294 282 307 322 332 325 134 167 207 251 281 262 274 6 72 11 299 273 33 351 328
333 334 334 329 320 298 277 277 282 252 266 282 298 291 318 302 291 279 298 331 314 272 257 271 289 312 339 320 320 297 306 228 232 250 252 265 49 355 327 237 339 340 325 297
331 332 331 326 318 305 286 275 268 267 272 283 281 279 278 278 255 257 311 315 353 290 264 321 337 313 310 303 286 288 269 290 305 292 267 345 341 348 233 315 309 308 302 290
328 327 328 326 321 309 287 287 279 275 265 266 287 283 271 258 251 251 231 283 313 289 313 349 330 312 295 313 296 328 302 205 260 202 287 300 309 297 298 289 277 289 285 282
325 325 325 328 326 318 298 283 288 281 284 296 274 266 248 250 242 234 239 258 228 230 234 299 285 277 306 293 287 312 310 328 241 295 269 315 313 309 304 307 307 302 287 274
324 322 322 325 314 303 291 280 264 263 283 283 307 304 272 262 246 221 221 234 234 263 238 219 256 260 290 278 296 303 289 296 288 272 289 319 282 294 320 323 320 320 310 286
322 320 319 312 302 296 292 277 261 232 240 290 299 306 302 237 226 228 227 238 249 261 248 238 233 252 298 283 299 267 268 351 315 296 334 294 325 343 343 335 322 329 327 315
322 319 315 311 306 300 285 301 242 225 220 264 284 301 285 225 221 227 228 230 233 226 215 238 237 250 262 266 266 275 342 337 349 328 334 358 339 335 340 330 332 341 339 329
322 317 314 310 300 265 213 265 199 209 223 245 276 271 254 219 216 223 213 212 214 212 228 227 243 255 208 264 272 311 343 356 353 29 7 355 351 340 340 345 346 357 6 21
322 318 313 306 297 253 243 259 247 250 207 243 264 265 259 202 209 200 194 198 205 219 237 239 237 242 212 258 302 334 358 358 0 42 21 354 345 345 350 353 1 15 23 38
325 321 317 308 273 242 250 256 224 235 223 258 239 268 298 238 255 203 183 192 206 224 220 236 244 239 230 276 308 356 12 10 356 15 7 6 352 350 4 3 11 21 29 46
336 354 290 210 150 257 276 262 224 209 213 231 248 248 261 313 305 269 194 193 218 232 216 216 237 256 260 240 298 7 11 7 8 14 10 0 357 3 12 16 15 23 31 51
352 323 278 286 286 280 238 231 204 179 230 217 236 238 245 266 266 299 289 286 241 255 153 242 228 297 126 107 102 54 27 12 20 28 20 14 1 8 23 28 23 26 36 49
307 298 295 313 324 234 260 244 244 208 265 167 247 228 197 256 276 268 260 239 271 272 354 249 304 323 111 111 87 65 43 22 17 19 19 18 12 14 26 41 47 32 38 46
313 298 278 272 260 293 253 235 222 247 2 349 355 0 286 249 240 266 266 239 251 329 275 274 40 194 107 117 95 89 62 36 28 16 19 21 25 22 26 35 47 58 47 47
292 298 252 264 209 230 313 339 324 326 320 313 299 276 269 288 266 251 249 231 193 246 234 337 75 39 142 128 119 95 74 53 41 37 28 20 26 33 32 28 31 39 34 44
280 290 257 245 337 312 347 340 356 344 330 316 310 261 245 179 258 265 252 205 209 191 303 353 38 342 133 146 118 87 95 64 58 51 43 43 45 45 41 38 41 41 47 51
291 271 287 309 321 315 317 344 324 326 329 317 281 287 220 217 231 240 231 152 130 347 325 354 4 45 155 144 111 100 82 76 66 66 68 63 56 57 59 54 53 51 53 55
277 259 287 309 310 309 309 310 313 331 335 334 284 268 306 249 267 331 23 39 18 358 349 354 3 22 155 175 189 182 131 94 81 73 76 79 74 70 67 59 53 56 58 61